Location: Lafig�re
(44.4503°N, 4.0357°E)
Time: 16:55:54
(UTC+00:00)

deb Explorer IX - Pass Details

Date: 28 January 2021
Orbit: 537 x 1102 km, 38.8° (Epoch: 04 March)

Event Time Altitude Azimuth Distance (km) Brightness Sun altitude
Rises 20:04:12 0° 273° (W) 3,589 ? -35.0°
Reaches altitude 10° 20:07:18 10° 262° (W) 2,543 ? -35.6°
Enters shadow 20:10:41 24° 234° (SW) 1,631 ? -36.2°
Maximum altitude 20:12:20 28° 206° (SSW) 1,446 - -36.5°
Drops below altitude 10° 20:16:45 10° 147° (SSE) 2,201 - -37.2°
Sets 20:19:14 0° 136° (SE) 3,026 - -37.7°
